TimeEST,TemperatureF,Dew PointF,Humidity,Sea Level PressureIn,VisibilityMPH,Wind Direction,Wind SpeedMPH,Gust SpeedMPH,PrecipitationIn,Events,Conditions,WindDirDegrees,DateUTC
12:15 AM,19.4,17.6,93,30.37,6.0,Calm,Calm,-,N/A,,Clear,0,2013-01-09 05:15:00
12:35 AM,19.4,17.6,93,30.36,4.0,Calm,Calm,-,N/A,,Clear,0,2013-01-09 05:35:00
1:15 AM,19.4,17.6,93,30.37,4.0,Calm,Calm,-,N/A,,Clear,0,2013-01-09 06:15:00
1:35 AM,21.2,19.4,93,30.37,6.0,Calm,Calm,-,N/A,,Clear,0,2013-01-09 06:35:00
1:55 AM,19.4,15.8,86,30.37,4.0,Calm,Calm,-,N/A,,Clear,0,2013-01-09 06:55:00
2:15 AM,19.4,17.6,93,30.37,3.0,Calm,Calm,-,N/A,,Clear,0,2013-01-09 07:15:00
2:35 AM,19.4,17.6,93,30.36,5.0,Calm,Calm,-,N/A,,Clear,0,2013-01-09 07:35:00
2:55 AM,17.6,14.0,86,30.36,0.5,Calm,Calm,-,N/A,,Unknown,0,2013-01-09 07:55:00
3:35 AM,17.6,14.0,86,30.35,3.0,Calm,Calm,-,N/A,,Clear,0,2013-01-09 08:35:00
3:55 AM,17.6,15.8,93,30.35,3.0,Calm,Calm,-,N/A,,Clear,0,2013-01-09 08:55:00
4:15 AM,17.6,14.0,86,30.35,2.5,Calm,Calm,-,N/A,,Clear,0,2013-01-09 09:15:00
4:35 AM,15.8,10.4,79,30.36,0.8,Calm,Calm,-,N/A,,Unknown,0,2013-01-09 09:35:00
4:55 AM,17.6,15.8,93,30.35,4.0,Calm,Calm,-,N/A,,Clear,0,2013-01-09 09:55:00
5:15 AM,15.8,12.2,86,30.35,6.0,Calm,Calm,-,N/A,,Clear,0,2013-01-09 10:15:00
5:55 AM,15.8,10.4,79,30.36,4.0,Calm,Calm,-,N/A,,Clear,0,2013-01-09 10:55:00
6:15 AM,12.2,8.6,85,30.37,5.0,Calm,Calm,-,N/A,,Clear,0,2013-01-09 11:15:00
6:35 AM,12.2,10.4,92,30.37,4.0,Calm,Calm,-,N/A,,Clear,0,2013-01-09 11:35:00
7:15 AM,12.2,8.6,85,30.38,5.0,Calm,Calm,-,N/A,,Clear,0,2013-01-09 12:15:00
7:35 AM,12.2,8.6,85,30.37,5.0,Calm,Calm,-,N/A,,Clear,0,2013-01-09 12:35:00
8:15 AM,12.2,10.4,92,30.37,5.0,Calm,Calm,-,N/A,,Clear,0,2013-01-09 13:15:00
8:35 AM,12.2,10.4,92,30.38,5.0,Calm,Calm,-,N/A,,Clear,0,2013-01-09 13:35:00
8:55 AM,14.0,10.4,86,30.37,6.0,Calm,Calm,-,N/A,,Clear,0,2013-01-09 13:55:00
9:15 AM,15.8,14.0,93,30.36,5.0,Calm,Calm,-,N/A,,Clear,0,2013-01-09 14:15:00
9:35 AM,15.8,14.0,93,30.35,5.0,Calm,Calm,-,N/A,,Clear,0,2013-01-09 14:35:00
9:55 AM,17.6,15.8,93,30.34,5.0,Calm,Calm,-,N/A,,Clear,0,2013-01-09 14:55:00
10:35 AM,19.4,15.8,86,30.34,7.0,Calm,Calm,-,N/A,,Clear,0,2013-01-09 15:35:00
10:55 AM,21.2,19.4,93,30.31,8.0,Calm,Calm,-,N/A,,Clear,0,2013-01-09 15:55:00
11:15 AM,21.2,19.4,93,30.27,8.0,Calm,Calm,-,N/A,,Clear,0,2013-01-09 16:15:00
11:35 AM,23.0,19.4,86,30.24,10.0,Calm,Calm,-,N/A,,Clear,0,2013-01-09 16:35:00
11:55 AM,24.8,21.2,86,30.22,9.0,Calm,Calm,-,N/A,,Clear,0,2013-01-09 16:55:00
12:15 PM,24.8,21.2,86,30.18,8.0,Calm,Calm,-,N/A,,Clear,0,2013-01-09 17:15:00
12:55 PM,28.4,21.2,74,30.21,7.0,Calm,Calm,-,N/A,,Clear,0,2013-01-09 17:55:00
1:15 PM,28.4,21.2,74,30.19,9.0,Calm,Calm,-,N/A,,Clear,0,2013-01-09 18:15:00
1:35 PM,30.2,21.2,69,30.18,9.0,Calm,Calm,-,N/A,,Clear,0,2013-01-09 18:35:00
1:55 PM,30.2,23.0,75,30.14,8.0,Calm,Calm,-,N/A,,Scattered Clouds,0,2013-01-09 18:55:00
2:15 PM,30.2,23.0,75,30.12,9.0,Calm,Calm,-,N/A,,Mostly Cloudy,0,2013-01-09 19:15:00
2:35 PM,32.0,23.0,69,30.12,9.0,Calm,Calm,-,N/A,,Overcast,0,2013-01-09 19:35:00
3:15 PM,32.0,24.8,75,30.05,9.0,NE,3.5,-,N/A,,Overcast,50,2013-01-09 20:15:00
3:35 PM,33.8,24.8,70,30.04,10.0,South,9.2,-,N/A,,Mostly Cloudy,190,2013-01-09 20:35:00
3:55 PM,39.2,26.6,61,30.05,10.0,SSW,9.2,18.4,N/A,,Mostly Cloudy,200,2013-01-09 20:55:00
4:15 PM,37.4,26.6,65,30.05,10.0,South,4.6,-,N/A,,Overcast,180,2013-01-09 21:15:00
4:35 PM,37.4,28.4,70,30.02,10.0,South,9.2,-,N/A,,Overcast,190,2013-01-09 21:35:00
4:55 PM,37.4,28.4,70,30.00,10.0,South,5.8,-,N/A,,Overcast,180,2013-01-09 21:55:00
5:35 PM,33.8,24.8,70,30.01,10.0,West,5.8,-,N/A,,Scattered Clouds,260,2013-01-09 22:35:00
6:15 PM,32.0,26.6,80,30.01,10.0,Calm,Calm,-,N/A,,Partly Cloudy,0,2013-01-09 23:15:00
6:35 PM,30.2,24.8,80,30.02,9.0,Calm,Calm,-,N/A,,Clear,0,2013-01-09 23:35:00
6:55 PM,30.2,26.6,86,30.01,8.0,SSW,3.5,-,N/A,,Clear,200,2013-01-09 23:55:00
7:15 PM,28.4,24.8,86,30.01,6.0,Calm,Calm,-,N/A,,Clear,0,2013-01-10 00:15:00
7:35 PM,30.2,26.6,86,30.02,7.0,Calm,Calm,-,N/A,,Clear,0,2013-01-10 00:35:00
7:55 PM,28.4,23.0,80,30.01,5.0,South,3.5,-,N/A,,Partly Cloudy,190,2013-01-10 00:55:00
8:35 PM,26.6,23.0,86,30.00,5.0,South,4.6,-,N/A,,Scattered Clouds,190,2013-01-10 01:35:00
8:55 PM,30.2,26.6,86,30.00,7.0,South,4.6,-,N/A,,Scattered Clouds,190,2013-01-10 01:55:00
9:15 PM,30.2,26.6,86,30.02,5.0,South,5.8,-,N/A,,Scattered Clouds,190,2013-01-10 02:15:00
9:35 PM,30.2,24.8,80,30.03,6.0,South,4.6,-,N/A,,Mostly Cloudy,190,2013-01-10 02:35:00
9:55 PM,30.2,26.6,86,30.04,7.0,WSW,5.8,-,N/A,,Overcast,240,2013-01-10 02:55:00
10:15 PM,30.2,24.8,80,30.05,10.0,SW,6.9,-,N/A,,Overcast,220,2013-01-10 03:15:00
10:35 PM,39.2,26.6,61,30.05,10.0,WSW,6.9,-,N/A,,Overcast,250,2013-01-10 03:35:00
11:15 PM,42.8,24.8,49,30.06,10.0,West,12.7,19.6,N/A,,Overcast,260,2013-01-10 04:15:00
11:35 PM,42.8,24.8,49,30.06,10.0,West,5.8,-,N/A,,Overcast,260,2013-01-10 04:35:00
11:55 PM,42.8,24.8,49,30.05,10.0,West,11.5,20.7,N/A,,Overcast,270,2013-01-10 04:55:00